Presure
172 192 206 154 120 131 118 125 117 132 131 95 114 92 127 144 141 118 114 120 124 116 112 127 122 112 131 112 135 118 116 141 119 110 117 126 191 179 187 182 181 175 172 156 161 165 158 158 117
206 195 180 168 152 170 129 102 119 128 100 130 123 132 134 114 119 115 112 103 116 123 117 127 122 122 130 131 127 134 124 114 125 118 118 119 130 195 192 183 175 176 178 168 183 170 125 89 160
197 202 195 185 194 140 151 80 114 124 117 134 114 103 97 127 103 132 114 115 118 117 115 115 125 127 123 126 116 134 109 110 129 128 118 115 117 172 186 171 174 172 163 172 172 167 179 160 160
232 194 197 187 193 205 116 150 199 121 121 126 130 103 101 114 114 111 116 117 121 119 118 112 127 118 125 128 130 132 146 113 135 126 123 121 115 116 109 174 186 167 174 154 163 164 163 157 159
194 220 187 191 178 196 157 134 130 137 81 107 89 98 100 99 97 102 110 118 118 110 125 117 128 118 125 119 128 131 137 118 140 124 119 118 119 116 117 117 167 169 173 172 176 161 156 163 158
189 214 215 190 198 196 152 158 102 190 106 131 93 129 120 106 119 96 101 113 120 109 120 125 124 121 125 126 131 125 130 150 127 132 117 111 121 110 110 110 116 148 180 177 164 161 168 179 168
179 214 217 206 204 207 75 212 204 121 196 132 130 105 114 195 115 117 142 108 100 122 110 111 121 115 123 125 124 126 127 137 162 138 131 123 114 113 109 109 108 110 125 124 148 145 181 166 170
203 205 209 201 198 196 199 195 205 192 122 82 133 136 93 98 159 223 140 101 113 115 117 118 120 112 117 123 126 125 126 131 165 117 129 126 123 129 110 114 111 111 111 109 126 119 121 120 122
209 202 194 163 195 191 197 144 218 203 127 139 134 130 115 124 123 113 134 156 122 122 115 112 110 119 117 124 126 124 127 129 128 181 168 131 127 123 123 116 113 111 110 115 109 110 115 118 121
209 205 191 156 198 194 202 197 167 206 193 144 164 95 93 122 120 115 106 107 125 115 121 106 111 125 118 114 115 119 126 128 132 128 183 142 132 124 112 122 124 114 112 116 111 111 111 109 110
231 215 195 193 196 191 201 200 209 216 158 183 139 119 104 83 125 140 125 124 108 109 117 116 113 116 119 124 115 115 128 128 121 133 127 160 130 133 132 122 121 125 119 123 114 110 116 112 116
233 247 212 189 197 195 198 202 204 209 203 198 189 132 153 139 119 139 133 111 112 126 107 119 116 112 118 116 118 119 111 125 127 121 131 124 163 133 121 133 132 122 106 123 119 117 121 122 115
223 222 251 161 191 201 197 208 197 201 205 205 191 179 193 127 136 158 127 127 148 140 110 110 118 115 122 116 110 118 123 114 126 131 137 127 131 166 158 131 122 139 135 122 111 116 120 118 118
217 218 221 249 191 196 205 205 205 195 198 201 193 165 195 141 132 141 129 131 131 166 117 116 108 110 120 121 120 120 118 123 118 131 128 122 127 131 146 144 155 143 133 134 136 132 123 127 128
215 216 217 241 207 191 200 206 210 200 197 197 199 127 199 194 115 130 125 123 130 132 92 116 120 112 119 109 115 123 97 111 108 126 125 126 121 123 125 131 131 123 132 151 141 146 141 139 129
213 219 212 203 242 192 204 205 199 201 199 189 190 190 199 141 191 195 126 129 141 128 133 115 137 104 118 114 108 119 128 120 118 125 123 126 124 121 120 121 127 127 130 127 122 133 157 135 137
217 207 182 202 218 227 211 196 199 199 190 180 195 191 200 188 188 116 127 116 118 106 133 131 139 127 123 125 114 108 116 116 117 121 121 115 115 112 112 126 127 132 130 129 130 126 129 127 126
232 209 217 210 202 215 220 193 194 207 195 181 185 201 193 209 233 173 139 126 140 113 138 133 123 138 122 124 132 117 124 111 117 116 122 124 125 122 130 118 122 128 129 110 117 112 122 119 112
67 237 212 205 201 201 217 204 191 203 205 188 178 200 197 200 201 195 88 122 119 87 126 111 130 138 118 123 118 125 129 123 116 118 118 121 124 124 118 126 117 129 134 125 133 130 126 122 123
228 220 199 210 196 211 205 220 200 196 209 189 178 192 193 193 212 200 191 198 185 189 179 121 143 139 114 124 125 124 126 126 127 119 116 121 120 118 124 102 125 130 110 113 104 114 134 118 114
267 225 233 93 209 210 216 212 222 210 209 206 200 178 192 189 195 189 189 139 173 155 121 136 159 110 109 138 112 112 120 121 129 125 118 142 125 114 125 122 118 117 120 122 124 117 102 121 123
266 210 224 215 215 212 208 217 218 226 213 207 193 185 185 188 193 190 207 201 145 182 173 174 138 136 126 112 124 113 115 115 98 119 129 112 121 115 114 124 108 126 90 99 134 118 125 106 121
307 259 204 213 206 206 216 208 214 218 223 203 203 194 187 183 187 187 184 176 200 99 213 191 119 134 120 128 125 105 129 129 113 96 116 120 119 125 118 120 121 114 121 125 100 124 124 118 123
88 96 243 214 207 209 208 229 203 216 227 225 194 194 187 186 188 190 200 206 184 194 193 212 140 169 138 125 121 123 121 141 138 133 125 121 113 113 134 106 119 121 107 126 121 118 125 131 126
281 256 258 223 216 213 206 215 227 217 216 223 221 201 195 183 185 191 184 196 191 187 197 194 191 207 127 110 106 165 111 130 119 130 172 123 118 122 107 138 126 106 107 132 147 120 129 155 161
291 262 255 254 223 221 207 66 218 222 200 104 220 228 183 194 181 185 190 188 197 195 174 199 189 201 214 174 158 175 111 154 161 110 160 159 137 122 120 147 119 98 134 130 129 139 118 118 128
284 269 238 250 245 210 212 205 79 203 217 201 95 227 221 200 186 179 184 184 180 184 188 198 194 191 190 120 118 144 99 174 191 182 150 132 115 113 177 165 124 125 151 157 136 126 150 153 165
266 273 259 250 246 216 210 127 208 137 187 229 196 181 230 199 196 181 179 187 179 183 192 187 170 199 190 184 190 189 170 153 164 162 165 135 162 187 177 171 125 172 178 145 149 182 133 156 125
268 273 255 254 243 244 207 208 213 213 225 237 206 201 212 229 191 188 180 180 183 174 181 191 191 190 196 193 155 188 180 177 168 153 197 120 125 143 141 131 163 175 166 142 161 162 177 146 122
276 273 264 258 245 248 213 212 215 216 220 227 223 203 223 219 242 195 181 178 173 177 140 176 195 190 191 105 188 169 175 168 167 166 196 178 177 182 108 145 150 189 101 106 138 191 199 143 134
Wind_Speed
60 56 50 63 60 61 51 61 46 59 47 27 30 19 39 45 38 30 23 29 26 21 17 22 20 15 13 12 11 5 3 10 10 6 15 13 18 6 19 17 23 26 27 14 20 28 26 27 16
56 54 58 57 68 65 46 42 46 60 32 46 42 42 47 21 26 29 24 24 23 23 20 23 19 18 13 11 10 10 5 3 9 8 15 19 8 23 23 18 11 17 17 17 20 23 17 13 24
53 53 56 58 57 69 58 34 46 57 37 50 37 31 26 36 29 36 30 28 25 23 20 20 20 18 14 11 12 9 4 3 8 9 12 14 20 3 13 6 4 10 6 12 10 8 17 20 22
49 56 54 56 62 65 49 64 55 46 44 38 42 35 32 37 36 31 31 30 28 25 24 21 21 18 15 13 12 9 11 2 7 5 8 11 16 20 19 7 21 8 15 12 9 8 13 16 18
53 48 56 59 69 66 71 69 68 71 33 39 30 36 36 27 27 29 30 31 28 24 27 22 23 20 16 14 12 10 9 4 6 5 6 9 13 16 18 19 9 7 8 9 14 13 14 17 15
57 52 50 62 66 66 56 70 41 63 40 60 41 53 44 38 37 31 25 29 30 26 27 26 23 20 17 14 13 11 10 10 6 6 3 3 10 12 14 15 19 2 25 23 15 14 19 25 22
62 52 48 56 61 60 18 61 61 61 57 64 57 45 45 48 45 39 44 29 27 29 26 24 23 20 18 16 14 13 12 12 12 9 4 2 6 8 10 13 14 16 18 17 11 13 24 14 18
66 56 49 54 62 67 76 62 62 61 52 36 61 53 31 28 58 51 46 27 30 28 29 27 25 21 19 18 16 15 14 13 13 8 8 5 3 2 6 10 11 12 12 12 14 11 14 13 13
69 58 54 71 63 78 78 72 60 63 64 69 65 61 42 43 40 36 34 51 37 33 29 27 25 22 21 21 19 18 17 15 13 14 17 9 6 4 4 7 9 11 11 7 9 7 11 8 8
70 64 62 81 68 76 77 68 69 64 67 58 62 40 40 48 44 41 41 32 39 33 34 28 26 26 23 22 21 20 19 18 17 14 16 15 11 7 7 6 5 7 9 7 8 5 8 6 6
67 65 72 71 73 78 78 68 63 61 60 70 72 57 48 38 47 50 49 45 40 35 35 33 30 27 26 26 23 22 22 20 18 18 15 16 14 13 11 8 7 6 7 5 7 7 6 8 7
62 60 74 79 76 77 79 72 65 62 66 68 70 65 65 59 50 60 51 45 43 42 35 36 33 28 29 26 26 25 22 23 20 19 19 17 19 17 13 14 13 9 9 8 8 8 8 8 9
60 64 67 59 78 76 86 73 70 64 67 74 73 71 74 54 52 62 55 51 49 47 39 35 37 32 33 28 27 27 27 24 24 23 23 20 20 22 23 17 13 19 17 11 9 9 11 10 10
68 72 71 74 79 79 82 79 72 69 67 69 74 72 76 63 55 52 58 55 51 51 45 42 34 33 34 32 32 31 28 28 26 26 24 22 22 22 22 22 26 23 18 19 21 19 16 16 18
75 72 71 65 80 79 83 83 67 70 67 70 71 69 75 74 61 60 52 54 54 51 32 45 45 37 37 32 31 35 27 27 25 29 28 27 24 22 21 23 22 18 21 29 25 29 28 27 23
81 76 68 59 71 82 88 77 74 71 69 73 74 74 75 65 74 68 58 60 64 52 52 46 51 36 40 36 33 36 37 31 31 32 30 31 28 25 24 23 24 24 24 23 20 24 35 27 28
85 70 52 73 71 84 90 78 81 77 74 78 73 76 76 75 76 61 62 57 53 49 54 54 53 48 45 46 39 35 34 34 34 35 34 32 29 25 26 29 28 29 28 28 29 24 25 25 25
77 73 68 71 79 83 89 81 88 81 77 80 82 75 80 75 73 79 67 62 64 51 60 57 54 53 48 49 49 42 42 37 39 39 39 39 38 35 38 28 31 33 33 27 26 25 25 24 23
33 89 83 80 91 93 86 90 90 85 83 82 83 77 79 75 79 85 48 64 62 52 61 52 57 56 50 51 48 49 47 47 44 45 42 42 41 40 36 38 32 37 38 36 39 38 37 30 29
88 83 77 86 95 95 92 87 96 94 87 85 88 83 83 82 72 75 82 76 68 76 73 59 65 61 50 54 53 51 50 51 51 48 42 45 42 41 44 33 39 42 33 33 30 31 42 33 30
87 85 83 37 94 99 98 95 97 99 88 91 90 86 88 87 76 74 80 65 80 69 65 66 67 52 50 57 50 50 53 52 54 50 46 53 50 42 48 42 40 42 42 41 42 37 25 39 41
86 60 87 92 100 101 97 89 93 97 94 93 91 92 87 85 78 78 75 74 76 83 78 77 67 64 57 56 57 55 54 53 47 53 56 51 51 44 45 50 42 50 19 32 53 41 45 32 40
86 84 88 98 105 100 103 96 92 97 98 89 88 86 87 89 82 79 80 84 81 58 76 82 65 64 60 61 61 58 62 62 55 47 55 54 55 53 53 54 51 49 53 54 36 48 46 44 46
28 37 99 107 107 111 102 95 94 96 91 91 86 92 91 91 88 81 81 83 86 84 86 80 72 74 69 68 67 66 66 68 65 63 64 59 56 55 59 44 57 58 45 58 54 48 52 57 49
88 94 99 112 113 103 97 95 87 92 90 89 95 96 95 92 91 86 87 80 83 84 82 83 83 74 74 69 66 74 67 68 68 68 70 67 65 66 45 65 66 45 48 65 71 54 59 60 76
90 96 98 103 107 95 99 30 81 88 83 44 95 95 84 92 92 91 86 79 83 87 85 81 85 77 73 84 84 79 71 77 71 66 77 76 71 69 69 53 64 35 76 64 64 67 54 48 55
85 96 96 100 101 98 105 100 27 75 74 83 61 92 91 93 93 93 89 82 73 85 83 81 82 83 82 76 74 81 48 65 67 64 77 76 71 65 71 72 76 72 81 84 68 60 78 80 78
90 96 95 99 100 102 105 69 87 56 71 87 90 83 91 95 96 95 94 85 84 82 82 82 83 84 86 81 74 66 67 63 79 80 76 82 79 59 76 78 56 82 82 79 65 85 66 68 59
88 91 96 97 99 99 104 102 94 86 86 84 97 100 97 93 97 99 100 91 87 90 86 87 86 85 83 73 62 63 64 67 73 77 58 83 82 75 90 63 76 80 88 69 81 80 82 70 61
86 89 93 96 98 96 100 99 95 92 86 86 92 101 95 92 83 98 97 94 95 93 77 92 87 84 75 57 61 79 76 88 84 83 51 58 59 62 53 96 84 75 38 42 73 86 87 68 64
Wind_Direction
243 249 248 236 241 241 243 245 242 246 246 229 203 240 243 250 239 239 235 238 239 238 237 255 253 244 273 252 304 280 334 332 320 337 25 22 210 312 242 207 205 211 225 228 231 212 218 228 248
255 248 240 241 240 242 235 242 243 248 227 245 242 238 238 231 218 237 233 230 237 239 239 253 251 252 269 277 279 307 322 337 342 358 28 25 43 220 223 218 208 221 233 233 211 217 227 253 220
253 249 244 242 242 238 227 209 241 246 233 245 231 240 225 250 227 243 235 234 238 240 235 239 248 257 251 266 258 300 244 302 338 27 39 36 32 197 235 168 190 208 164 228 213 200 209 203 220
252 244 245 243 241 240 232 229 224 240 238 236 240 226 233 237 234 232 236 234 238 239 238 233 247 244 253 265 275 286 308 294 325 11 61 34 52 40 47 132 231 167 222 128 179 197 198 194 217
249 245 239 241 242 241 227 234 239 242 209 232 231 234 231 217 219 233 236 237 232 229 239 237 249 241 250 244 265 280 292 250 267 304 84 69 47 51 38 37 139 179 219 225 236 200 198 218 232
250 245 238 238 239 239 231 227 225 231 228 244 225 242 230 230 227 226 220 236 236 227 237 238 243 241 247 249 262 261 275 283 244 287 291 128 71 94 84 70 48 140 236 234 172 179 219 238 230
245 242 236 235 235 237 249 226 223 235 228 239 240 230 228 240 224 229 240 225 226 233 232 232 238 240 246 247 250 254 262 275 246 253 245 168 133 120 120 100 95 77 56 65 95 103 222 203 230
247 242 235 233 234 235 237 227 219 220 231 230 240 245 216 222 235 230 241 226 229 231 234 236 240 236 245 249 245 251 253 261 256 246 267 227 165 77 138 97 101 84 83 83 60 75 80 90 104
245 239 231 234 229 234 235 230 218 216 236 237 237 237 227 235 231 228 228 241 237 236 235 235 235 238 240 244 246 248 254 258 255 247 244 258 220 186 143 143 136 131 127 90 116 108 90 87 82
240 236 229 232 228 233 233 229 230 212 216 222 225 233 226 230 232 229 238 230 234 237 236 231 236 240 239 241 244 249 252 254 257 248 247 249 249 230 221 190 190 166 152 138 137 152 136 151 138
241 234 227 229 226 230 234 229 223 216 217 224 236 224 223 228 232 239 231 232 232 235 235 236 236 237 243 243 243 245 250 252 253 259 242 243 252 255 245 233 213 215 187 192 182 196 196 182 196
236 232 228 230 226 228 235 225 223 218 210 219 224 234 234 237 226 238 234 227 228 234 232 238 237 231 241 239 244 246 242 251 250 252 259 249 246 253 244 267 263 250 252 231 202 211 242 241 222
232 231 228 230 229 226 233 226 223 217 215 212 220 223 227 223 224 232 231 236 227 232 232 232 238 234 239 237 240 246 248 245 253 252 253 256 260 248 256 255 253 266 269 258 240 249 256 261 262
234 229 224 225 229 228 230 230 221 218 219 216 215 225 224 229 224 229 233 231 231 226 235 236 227 231 236 238 245 246 247 252 251 254 256 253 258 261 258 256 258 266 269 274 277 276 271 278 284
233 226 227 224 226 229 229 230 220 218 218 217 220 234 221 222 224 226 237 229 230 229 236 235 236 232 238 232 240 249 232 246 247 258 260 259 257 259 262 265 266 254 271 271 275 278 279 282 278
232 228 224 226 227 228 230 227 225 217 214 219 220 219 222 218 222 220 226 232 236 226 230 234 234 235 239 238 234 250 250 251 253 257 259 263 261 260 262 261 270 271 273 274 263 279 273 282 282
232 226 221 226 225 226 228 224 227 219 210 220 219 218 221 217 221 223 221 226 229 228 230 231 233 235 238 242 239 238 248 252 254 257 259 256 253 251 256 268 270 273 274 275 277 273 278 277 279
234 231 226 221 226 225 226 222 228 222 210 217 220 217 220 217 215 223 222 226 228 230 234 230 230 231 236 238 242 239 242 244 251 251 256 257 260 262 265 264 269 273 276 257 265 260 270 267 264
248 224 222 213 225 222 223 219 226 222 215 212 224 221 220 217 213 221 241 225 230 241 231 228 230 231 235 237 239 243 242 244 244 248 250 254 257 259 258 265 263 272 273 269 276 278 279 279 280
224 224 218 219 224 226 222 218 221 223 216 210 218 219 220 219 219 218 226 220 226 223 224 235 237 234 235 235 238 242 243 244 245 246 248 253 253 254 258 235 266 270 253 260 255 268 277 274 275
220 221 219 224 224 227 223 216 219 223 215 215 210 219 222 221 215 219 223 228 227 225 226 233 230 231 233 234 237 239 243 244 246 248 249 253 253 249 259 259 258 259 262 265 268 266 267 274 277
216 217 217 219 224 226 224 219 219 222 220 214 212 214 221 225 217 218 220 222 221 225 225 226 236 233 229 235 236 239 244 243 242 248 250 247 253 249 253 260 248 264 254 259 270 265 270 271 276
219 213 215 217 222 223 226 219 219 220 221 216 214 213 217 226 220 218 220 223 225 240 225 224 231 230 227 231 235 238 241 244 243 250 247 250 254 255 257 260 261 256 263 265 266 268 269 268 273
216 222 211 216 219 223 225 222 219 221 222 220 213 213 214 221 225 216 218 217 225 225 229 225 228 228 231 231 233 236 240 247 248 249 252 253 250 250 257 254 260 259 266 263 264 265 269 272 275
210 209 210 215 218 222 227 225 218 220 220 222 220 212 213 215 224 220 219 218 224 229 228 232 227 228 229 234 240 237 241 246 244 248 248 248 248 252 257 258 258 262 260 259 267 266 268 272 276
206 213 212 215 218 217 226 234 217 222 219 217 223 220 213 213 220 226 220 219 221 227 230 228 234 231 230 234 241 242 241 248 250 248 250 251 253 253 254 263 253 265 260 258 258 263 268 266 269
205 212 214 214 216 216 223 230 203 219 221 219 225 225 217 213 216 225 226 216 223 228 229 231 231 235 235 237 238 239 255 245 248 250 250 247 249 249 265 266 254 254 261 263 261 262 268 272 274
208 209 213 215 215 213 221 228 224 213 216 217 221 226 221 214 213 219 227 221 220 227 229 229 233 231 233 236 237 235 242 244 243 246 247 247 251 260 260 261 270 262 266 264 265 270 269 273 274
210 210 213 214 215 213 219 224 224 222 219 215 218 223 222 216 213 214 222 224 219 222 228 228 230 231 232 233 239 242 240 240 243 244 256 252 249 254 258 262 259 261 262 270 267 269 274 274 277
208 211 212 215 214 214 218 223 223 223 219 219 217 222 224 219 219 214 219 224 227 220 227 230 230 231 230 249 229 236 235 240 243 247 242 249 250 256 267 260 256 261 256 269 267 271 269 276 278